SCP
0 0 0 0 0 0 0 0 0 0 0 0 0 0 0 0 0 0 0 0 0 0 0 0 0 0 0 0 0 0 0 0 0 0 0 0 0 0 0 0 0 0 0
0 0 0 0 0 0 0 0 0 0 0 0 0 0 0 0 0 0 0 0 0 0 0 0 0 0 0 0 0 0 0 0 0 0 0 0 0 0 0 0 0 0 0
0 0 0 0 0 0 0 0 0 0 0 0 0 0 0 0 0 0 0 0 0 0 0 0 0 0 0 0 0 0 0 0 0 0 0 0 0 0 0 0 0 0 0
0 0 0 0 0 0 0 0 0 0 0 0 0 0 0 0 0 0 0 0 0 0 0 0 0 0 0 0 0 0 0 0 0 0 0 0 0 0 0 0 0 0 0
0 0 0 0 0 0 0 0 0 0 0 0 0 0 0 0 0 0 0 0 0 0 0 0 0 0 0 0 0 0 0 0 0 0 0 0 0 0 0 0 0 0 0
0 0 0 0 0 0 0 0 0 0 0 0 0 0 0 0 0 0 0 0 0 0 0 0 0 0 0 0 0 0 0 0 0 0 0 0 0 0 0 0 0 0 0
0 0 0 0 0 0 0 0 0 0 0 0 0 0 0 0 0 0 0 0 0 0 0 0 0 0 0 0 0 0 0 0 0 0 0 0 0 0 0 0 0 0 0
0 0 0 0 0 0 0 0 0 0 0 0 0 0 0 0 0 0 0 0 0 0 0 0 0 0 0 0 0 0 0 0 0 0 0 0 0 0 0 0 0 0 0
0 0 0 0 0 0 0 0 0 0 0 0 0 0 0 0 0 0 0 0 0 0 0 0 0 0 0 0 0 0 0 0 0 0 0 0 0 0 0 0 0 0 0
0 0 0 0 0 0 0 0 0 0 0 0 0 0 0 0 0 0 0 0 0 0 0 0 0 0 0 0 0 0 0 0 0 0 0 0 0 0 0 0 0 0 0
0 0 0 0 0 0 0 0 0 0 0 0 0 0 0 0 0 0 0 0 0 0 0 0 0 0 0 0 0 0 0 0 0 0 0 0 0 0 0 0 0 0 0
0 0 0 0 0 0 0 0 0 0 0 0 0 0 0 0 0 0 0 0 0 0 0 0 0 0 0 0 0 0 0 0 0 0 0 0 0 0 0 0 0 0 0
0 0 0 0 0 0 0 0 0 0 0 0 0 0 0 0 0 0 0 0 0 0 0 0 0 0 0 0 0 0 0 0 0 0 0 0 0 0 0 0 0 0 0
0 0 0 0 0 0 0 0 0 0 0 0 0 0 0 0 0 0 0 0 0 0 0 0 0 0 0 0 0 0 0 0 0 0 0 0 0 0 0 0 0 0 0
0 0 0 0 0 0 0 0 0 0 0 0 0 0 0 0 0 0 0 0 0 0 0 0 0 0 0 0 0 0 0 0 0 0 0 0 0 0 0 0 0 0 0
0 0 0 0 0 0 0 0 0 0 0 0 0 0 0 0 0 0 0 0 0 0 0 0 0 0 0 0 0 0 0 0 0 0 0 0 0 0 0 0 0 0 0
0 0 0 0 0 0 0 0 0 0 0 0 0 0 0 0 0 0 0 0 0 0 0 0 0 0 0 0 0 0 0 0 0 0 0 0 0 0 0 0 0 0 0
0 0 0 0 0 0 0 0 0 0 0 0 0 0 0 0 0 0 0 0 0 0 0 0 0 0 0 0 0 0 0 0 0 0 0 0 0 0 0 0 0 0 0
0 0 0 0 0 0 0 0 0 0 0 0 0 0 0 0 0 0 0 0 0 0 0 0 0 0 0 0 0 0 0 0 0 0 0 0 0 0 0 0 0 0 0
0 0 0 0 0 0 0 0 0 0 0 0 0 0 0 0 0 0 0 0 0 0 0 0 0 0 0 0 0 0 0 0 0 0 0 0 0 0 0 0 0 0 0
0 0 0 0 0 0 0 0 0 0 0 0 0 0 0 0 0 0 0 0 0 0 0 0 0 0 0 0 0 0 0 0 0 0 0 0 0 0 0 0 0 0 0
0 0 0 0 0 0 0 0 0 0 0 0 0 0 0 0 0 0 0 0 0 0 0 0 0 0 0 0 0 0 0 0 0 0 0 0 0 0 0 0 0 0 0
0 0 0 0 0 0 0 0 0 0 0 0 0 0 0 0 0 0 0 0 0 0 0 0 0 0 0 0 0 0 0 0 0 0 0 0 0 0 0 0 0 0 0
0 0 0 0 0 0 0 0 0 0 0 0 0 0 0 0 0 0 0 0 0 0 0 0 0 0 0 0 0 0 0 0 0 0 0 0 0 0 0 0 0 0 0
0 0 0 0 0 0 0 0 0 0 0 0 0 0 0 0 0 0 0 0 0 0 0 0 0 0 0 0 0 0 0 0 0 0 0 0 0 0 0 0 0 0 0
0 0 0 0 0 0 0 0 0 0 0 0 0 0 0 0 0 0 0 0 0 0 0 0 0 0 0 0 0 0 0 0 0 0 0 0 0 0 0 0 0 0 0
Wind_Speed_500mb
79 78 77 77 79 78 78 77 75 76 70 64 54 49 47 46 44 38 33 29 26 21 20 17 13 12 13 15 18 21 22 22 19 21 21 26 30 28 31 37 42 42 47
79 77 76 77 78 76 76 73 75 77 78 61 52 50 49 49 45 39 34 30 25 22 21 17 12 11 11 12 16 18 21 21 19 20 22 25 27 27 30 33 35 39 44
75 72 76 78 79 78 74 73 76 74 71 58 54 54 54 52 47 42 36 31 26 25 22 17 11 9 9 12 14 15 16 18 19 21 23 23 26 27 26 29 33 34 36
70 73 73 72 72 73 68 75 89 85 69 59 60 58 58 53 48 42 36 32 30 26 23 17 12 10 8 12 12 12 12 15 19 21 23 23 25 26 32 36 33 35 33
64 64 64 63 63 64 68 78 74 84 70 57 65 66 60 54 49 42 38 35 31 27 23 19 16 14 11 11 10 10 12 15 18 21 23 24 26 26 31 36 42 44 43
61 60 58 57 57 59 68 75 83 77 63 66 67 62 59 54 48 43 40 36 31 28 24 23 20 18 14 12 11 12 14 15 18 21 23 24 25 25 28 35 42 49 48
55 54 52 52 57 60 67 75 79 79 67 69 67 63 58 53 48 45 42 37 32 29 27 25 24 21 18 16 15 15 17 19 21 21 23 26 25 25 29 33 37 41 46
52 53 54 56 60 64 74 83 79 69 68 71 69 64 59 53 49 47 43 38 33 31 28 28 28 23 23 20 18 17 18 20 22 23 23 25 27 25 29 34 40 44 45
56 56 59 60 68 69 75 80 75 73 72 72 67 63 59 56 52 50 43 38 34 32 29 32 30 30 28 24 22 21 21 22 25 25 25 26 28 30 32 36 40 46 51
58 57 59 64 69 72 75 77 76 73 76 74 69 64 60 56 53 48 43 39 37 32 32 36 34 34 30 29 28 25 25 25 25 27 28 28 30 34 36 37 41 45 44
55 57 60 64 69 73 77 79 80 80 79 75 71 67 63 59 55 49 43 39 34 31 35 39 38 37 33 32 32 30 28 29 27 28 29 32 34 36 39 42 43 42 42
53 58 62 64 68 75 79 81 82 83 80 77 75 72 67 61 56 50 43 38 31 35 38 43 41 40 37 37 36 35 35 36 30 30 33 35 37 38 41 43 43 42 40
41 51 62 67 72 75 80 84 86 86 86 83 79 76 71 64 57 49 41 31 35 35 47 47 44 43 43 44 43 41 40 38 36 37 37 37 39 40 39 40 41 41 40
30 35 46 62 73 77 82 86 88 91 91 87 83 78 69 61 55 47 37 36 31 49 54 51 48 47 48 48 48 49 45 43 41 41 41 40 40 41 41 40 38 38 39
26 30 36 47 62 75 86 91 94 93 90 87 83 75 70 65 54 37 33 32 52 61 53 52 55 53 52 53 51 52 47 47 45 45 44 43 43 43 42 41 40 38 38
23 27 33 40 49 63 77 88 92 91 87 84 74 66 61 56 46 32 38 62 64 60 60 63 62 60 58 57 56 55 51 48 48 48 47 47 45 43 42 42 41 40 39
21 24 28 34 41 50 62 77 90 92 91 79 71 66 65 60 52 55 72 64 63 64 68 70 68 65 61 57 56 58 54 50 51 52 50 48 46 44 42 41 42 40 39
17 18 24 30 36 42 51 62 74 88 84 79 73 69 71 66 63 82 77 65 69 73 74 75 73 67 61 58 58 57 55 56 54 52 51 49 47 45 44 42 42 40 39
20 22 24 28 31 36 43 52 62 71 78 75 71 74 76 76 80 88 84 79 75 79 77 79 73 65 62 61 60 59 59 58 55 54 53 51 48 47 45 43 44 42 39
25 25 24 27 30 34 39 45 53 63 75 78 76 75 78 83 84 80 81 81 78 81 79 74 68 68 66 65 64 63 61 61 60 58 55 53 51 48 46 44 44 44 39
33 32 31 28 29 31 36 41 46 55 66 72 79 77 79 86 77 73 73 75 75 73 68 64 64 65 66 66 67 65 61 62 62 59 56 54 53 50 47 46 44 42 41
32 33 34 33 32 33 35 38 41 47 58 71 77 78 77 81 78 74 77 76 74 74 74 73 74 74 71 68 67 66 64 63 62 60 56 54 53 51 48 45 44 41 40
35 36 36 35 36 37 39 42 44 47 53 60 64 70 68 73 74 75 71 69 70 73 75 77 77 78 74 69 68 67 66 62 59 59 57 55 54 52 47 45 45 44 43
40 40 41 41 41 41 42 43 46 51 57 62 65 69 72 73 76 77 75 76 77 80 79 75 77 74 69 68 66 68 67 64 62 60 57 54 54 51 49 47 46 44 44
45 46 47 47 47 46 46 46 48 49 51 55 59 63 65 67 68 70 73 75 74 72 74 76 78 75 73 74 71 67 64 62 61 59 58 57 53 51 50 49 47 46 46
54 54 55 55 55 54 54 54 53 52 52 54 55 56 58 59 60 62 64 65 66 66 67 68 70 71 69 68 67 66 64 62 61 57 57 56 54 53 53 50 48 47 47
Wind_Direction_500mb
232 234 236 238 240 239 237 235 234 230 230 227 237 252 228 221 218 221 226 232 241 251 260 270 284 304 317 325 334 336 338 344 347 341 354 6 10 11 8 6 2 3 10
232 232 235 238 241 239 239 234 233 227 228 227 232 238 221 216 219 221 225 232 241 250 256 262 276 294 307 322 329 331 334 340 347 344 356 360 1 2 2 4 5 6 8
232 234 236 238 240 240 235 231 234 222 215 222 236 225 214 214 219 222 224 230 237 245 250 250 258 273 299 316 323 329 331 334 342 344 352 354 352 346 355 1 2 8 3
231 234 238 241 239 238 232 225 226 219 215 223 227 217 211 215 217 220 226 229 233 237 241 244 245 255 277 304 312 322 328 335 344 346 339 344 343 339 344 351 2 2 357
238 242 244 241 235 228 222 223 214 222 212 228 219 209 211 214 217 221 225 228 231 233 236 236 236 243 268 283 300 317 328 341 338 332 327 334 328 330 339 346 350 351 351
239 241 239 232 228 222 216 212 225 208 213 219 212 210 213 216 217 222 224 228 230 232 234 233 239 242 255 277 299 313 322 328 321 319 317 319 318 321 330 340 344 347 350
239 236 231 225 221 218 219 211 217 210 214 211 210 211 214 216 219 223 226 227 229 231 233 238 239 242 256 267 283 301 311 314 309 308 307 307 309 308 316 325 336 339 337
239 235 228 221 221 218 219 213 210 212 215 210 213 213 216 218 221 224 227 226 229 232 234 242 242 244 251 257 268 282 290 288 292 294 295 292 292 295 306 316 324 327 330
243 237 231 223 219 219 220 213 214 217 215 212 216 217 218 221 221 223 224 227 232 234 239 244 246 247 251 257 262 268 273 274 282 285 283 286 289 291 296 306 316 321 323
244 242 236 229 223 223 222 221 220 218 216 215 217 218 220 223 223 223 222 226 231 237 244 248 248 251 254 259 261 264 265 266 273 273 280 284 284 285 293 301 307 311 314
249 246 240 235 230 225 225 223 222 217 216 218 219 220 221 223 222 223 222 227 232 242 250 253 252 254 259 258 262 266 268 264 268 273 277 281 282 285 290 296 300 304 306
255 249 245 240 235 228 224 222 219 219 219 220 220 221 222 223 222 220 222 223 236 249 256 254 252 254 257 260 263 268 266 269 269 269 273 274 276 280 286 289 292 297 299
260 253 249 245 239 232 227 224 221 220 221 223 223 224 224 222 220 218 220 228 240 249 255 253 252 254 256 258 261 264 262 263 265 268 272 274 278 280 281 283 288 292 297
266 259 252 246 242 236 232 229 228 227 226 226 227 227 225 222 216 214 226 229 243 250 253 251 251 252 255 256 257 260 263 259 260 265 268 272 275 278 280 283 287 292 296
266 263 258 252 247 242 238 234 233 234 236 237 236 233 229 222 214 222 236 258 269 256 255 251 251 253 255 257 258 260 260 256 258 262 265 269 272 275 278 282 285 288 290
263 266 264 260 255 248 243 240 238 239 240 240 238 238 232 218 218 240 260 266 255 252 252 252 253 255 258 260 261 262 260 258 259 260 263 266 269 271 274 278 281 284 289
277 267 264 264 262 258 252 246 241 240 237 235 234 230 223 222 233 250 258 258 259 255 253 254 255 255 258 259 258 258 258 258 256 258 261 263 265 267 270 273 276 280 286
296 282 276 272 267 262 258 255 249 245 241 240 238 235 226 231 249 257 264 259 256 255 253 255 256 257 259 258 257 256 256 256 255 257 259 261 264 266 268 270 271 275 281
313 299 286 276 271 272 271 264 254 249 240 240 239 238 232 242 254 259 266 265 256 256 255 257 257 258 257 258 257 257 257 256 256 256 257 259 260 261 262 264 268 273 277
330 320 305 294 285 281 276 269 260 246 234 235 237 236 239 247 251 258 260 257 253 256 258 259 257 257 257 258 258 256 256 256 255 255 256 256 256 257 259 261 266 272 272
337 331 323 307 294 284 279 277 273 256 240 240 246 247 248 250 259 266 265 258 262 263 264 262 259 257 256 255 256 255 255 255 254 254 254 255 255 256 257 260 262 264 266
333 326 321 314 303 290 282 275 270 264 253 253 258 257 261 267 266 268 275 265 263 263 264 262 261 261 259 259 259 257 255 254 255 255 254 254 254 254 256 258 263 263 261
329 325 320 315 308 300 288 278 271 266 263 262 264 264 265 267 267 272 267 261 262 265 263 261 261 262 260 259 258 258 257 254 254 253 251 252 253 254 255 257 257 257 258
323 320 316 311 307 302 295 288 279 273 268 266 265 266 267 264 263 264 264 265 269 263 257 260 262 261 260 257 256 258 257 253 250 250 251 250 252 253 254 255 256 255 254
310 308 307 305 302 298 295 290 287 283 279 275 272 270 269 268 267 266 268 269 272 271 269 264 261 261 258 259 257 255 253 248 247 247 249 250 250 252 253 254 253 253 252
299 297 295 292 290 288 287 285 283 282 280 279 278 276 275 273 271 270 269 269 268 269 268 265 261 260 259 255 252 249 247 246 246 245 248 250 250 252 254 253 251 250 251
Wind_Speed_850mb
79 78 77 77 79 78 78 77 75 76 70 64 54 49 47 46 44 38 33 29 26 21 20 17 13 12 13 15 18 21 22 22 19 21 21 26 30 28 31 37 42 42 47
79 77 76 77 78 76 76 73 75 77 78 61 52 50 49 49 45 39 34 30 25 22 21 17 12 11 11 12 16 18 21 21 19 20 22 25 27 27 30 33 35 39 44
75 72 76 78 79 78 74 73 76 74 71 58 54 54 54 52 47 42 36 31 26 25 22 17 11 9 9 12 14 15 16 18 19 21 23 23 26 27 26 29 33 34 36
70 73 73 72 72 73 68 75 89 85 69 59 60 58 58 53 48 42 36 32 30 26 23 17 12 10 8 12 12 12 12 15 19 21 23 23 25 26 32 36 33 35 33
64 64 64 63 63 64 68 78 74 84 70 57 65 66 60 54 49 42 38 35 31 27 23 19 16 14 11 11 10 10 12 15 18 21 23 24 26 26 31 36 42 44 43
61 60 58 57 57 59 68 75 83 77 63 66 67 62 59 54 48 43 40 36 31 28 24 23 20 18 14 12 11 12 14 15 18 21 23 24 25 25 28 35 42 49 48
55 54 52 52 57 60 67 75 79 79 67 69 67 63 58 53 48 45 42 37 32 29 27 25 24 21 18 16 15 15 17 19 21 21 23 26 25 25 29 33 37 41 46
52 53 54 56 60 64 74 83 79 69 68 71 69 64 59 53 49 47 43 38 33 31 28 28 28 23 23 20 18 17 18 20 22 23 23 25 27 25 29 34 40 44 45
56 56 59 60 68 69 75 80 75 73 72 72 67 63 59 56 52 50 43 38 34 32 29 32 30 30 28 24 22 21 21 22 25 25 25 26 28 30 32 36 40 46 51
58 57 59 64 69 72 75 77 76 73 76 74 69 64 60 56 53 48 43 39 37 32 32 36 34 34 30 29 28 25 25 25 25 27 28 28 30 34 36 37 41 45 44
55 57 60 64 69 73 77 79 80 80 79 75 71 67 63 59 55 49 43 39 34 31 35 39 38 37 33 32 32 30 28 29 27 28 29 32 34 36 39 42 43 42 42
53 58 62 64 68 75 79 81 82 83 80 77 75 72 67 61 56 50 43 38 31 35 38 43 41 40 37 37 36 35 35 36 30 30 33 35 37 38 41 43 43 42 40
41 51 62 67 72 75 80 84 86 86 86 83 79 76 71 64 57 49 41 31 35 35 47 47 44 43 43 44 43 41 40 38 36 37 37 37 39 40 39 40 41 41 40
30 35 46 62 73 77 82 86 88 91 91 87 83 78 69 61 55 47 37 36 31 49 54 51 48 47 48 48 48 49 45 43 41 41 41 40 40 41 41 40 38 38 39
26 30 36 47 62 75 86 91 94 93 90 87 83 75 70 65 54 37 33 32 52 61 53 52 55 53 52 53 51 52 47 47 45 45 44 43 43 43 42 41 40 38 38
23 27 33 40 49 63 77 88 92 91 87 84 74 66 61 56 46 32 38 62 64 60 60 63 62 60 58 57 56 55 51 48 48 48 47 47 45 43 42 42 41 40 39
21 24 28 34 41 50 62 77 90 92 91 79 71 66 65 60 52 55 72 64 63 64 68 70 68 65 61 57 56 58 54 50 51 52 50 48 46 44 42 41 42 40 39
17 18 24 30 36 42 51 62 74 88 84 79 73 69 71 66 63 82 77 65 69 73 74 75 73 67 61 58 58 57 55 56 54 52 51 49 47 45 44 42 42 40 39
20 22 24 28 31 36 43 52 62 71 78 75 71 74 76 76 80 88 84 79 75 79 77 79 73 65 62 61 60 59 59 58 55 54 53 51 48 47 45 43 44 42 39
25 25 24 27 30 34 39 45 53 63 75 78 76 75 78 83 84 80 81 81 78 81 79 74 68 68 66 65 64 63 61 61 60 58 55 53 51 48 46 44 44 44 39
33 32 31 28 29 31 36 41 46 55 66 72 79 77 79 86 77 73 73 75 75 73 68 64 64 65 66 66 67 65 61 62 62 59 56 54 53 50 47 46 44 42 41
32 33 34 33 32 33 35 38 41 47 58 71 77 78 77 81 78 74 77 76 74 74 74 73 74 74 71 68 67 66 64 63 62 60 56 54 53 51 48 45 44 41 40
35 36 36 35 36 37 39 42 44 47 53 60 64 70 68 73 74 75 71 69 70 73 75 77 77 78 74 69 68 67 66 62 59 59 57 55 54 52 47 45 45 44 43
40 40 41 41 41 41 42 43 46 51 57 62 65 69 72 73 76 77 75 76 77 80 79 75 77 74 69 68 66 68 67 64 62 60 57 54 54 51 49 47 46 44 44
45 46 47 47 47 46 46 46 48 49 51 55 59 63 65 67 68 70 73 75 74 72 74 76 78 75 73 74 71 67 64 62 61 59 58 57 53 51 50 49 47 46 46
54 54 55 55 55 54 54 54 53 52 52 54 55 56 58 59 60 62 64 65 66 66 67 68 70 71 69 68 67 66 64 62 61 57 57 56 54 53 53 50 48 47 47
Wind_Direction_850mb
232 234 236 238 240 239 237 235 234 230 230 227 237 252 228 221 218 221 226 232 241 251 260 270 284 304 317 325 334 336 338 344 347 341 354 6 10 11 8 6 2 3 10
232 232 235 238 241 239 239 234 233 227 228 227 232 238 221 216 219 221 225 232 241 250 256 262 276 294 307 322 329 331 334 340 347 344 356 360 1 2 2 4 5 6 8
232 234 236 238 240 240 235 231 234 222 215 222 236 225 214 214 219 222 224 230 237 245 250 250 258 273 299 316 323 329 331 334 342 344 352 354 352 346 355 1 2 8 3
231 234 238 241 239 238 232 225 226 219 215 223 227 217 211 215 217 220 226 229 233 237 241 244 245 255 277 304 312 322 328 335 344 346 339 344 343 339 344 351 2 2 357
238 242 244 241 235 228 222 223 214 222 212 228 219 209 211 214 217 221 225 228 231 233 236 236 236 243 268 283 300 317 328 341 338 332 327 334 328 330 339 346 350 351 351
239 241 239 232 228 222 216 212 225 208 213 219 212 210 213 216 217 222 224 228 230 232 234 233 239 242 255 277 299 313 322 328 321 319 317 319 318 321 330 340 344 347 350
239 236 231 225 221 218 219 211 217 210 214 211 210 211 214 216 219 223 226 227 229 231 233 238 239 242 256 267 283 301 311 314 309 308 307 307 309 308 316 325 336 339 337
239 235 228 221 221 218 219 213 210 212 215 210 213 213 216 218 221 224 227 226 229 232 234 242 242 244 251 257 268 282 290 288 292 294 295 292 292 295 306 316 324 327 330
243 237 231 223 219 219 220 213 214 217 215 212 216 217 218 221 221 223 224 227 232 234 239 244 246 247 251 257 262 268 273 274 282 285 283 286 289 291 296 306 316 321 323
244 242 236 229 223 223 222 221 220 218 216 215 217 218 220 223 223 223 222 226 231 237 244 248 248 251 254 259 261 264 265 266 273 273 280 284 284 285 293 301 307 311 314
249 246 240 235 230 225 225 223 222 217 216 218 219 220 221 223 222 223 222 227 232 242 250 253 252 254 259 258 262 266 268 264 268 273 277 281 282 285 290 296 300 304 306
255 249 245 240 235 228 224 222 219 219 219 220 220 221 222 223 222 220 222 223 236 249 256 254 252 254 257 260 263 268 266 269 269 269 273 274 276 280 286 289 292 297 299
260 253 249 245 239 232 227 224 221 220 221 223 223 224 224 222 220 218 220 228 240 249 255 253 252 254 256 258 261 264 262 263 265 268 272 274 278 280 281 283 288 292 297
266 259 252 246 242 236 232 229 228 227 226 226 227 227 225 222 216 214 226 229 243 250 253 251 251 252 255 256 257 260 263 259 260 265 268 272 275 278 280 283 287 292 296
266 263 258 252 247 242 238 234 233 234 236 237 236 233 229 222 214 222 236 258 269 256 255 251 251 253 255 257 258 260 260 256 258 262 265 269 272 275 278 282 285 288 290
263 266 264 260 255 248 243 240 238 239 240 240 238 238 232 218 218 240 260 266 255 252 252 252 253 255 258 260 261 262 260 258 259 260 263 266 269 271 274 278 281 284 289
277 267 264 264 262 258 252 246 241 240 237 235 234 230 223 222 233 250 258 258 259 255 253 254 255 255 258 259 258 258 258 258 256 258 261 263 265 267 270 273 276 280 286
296 282 276 272 267 262 258 255 249 245 241 240 238 235 226 231 249 257 264 259 256 255 253 255 256 257 259 258 257 256 256 256 255 257 259 261 264 266 268 270 271 275 281
313 299 286 276 271 272 271 264 254 249 240 240 239 238 232 242 254 259 266 265 256 256 255 257 257 258 257 258 257 257 257 256 256 256 257 259 260 261 262 264 268 273 277
330 320 305 294 285 281 276 269 260 246 234 235 237 236 239 247 251 258 260 257 253 256 258 259 257 257 257 258 258 256 256 256 255 255 256 256 256 257 259 261 266 272 272
337 331 323 307 294 284 279 277 273 256 240 240 246 247 248 250 259 266 265 258 262 263 264 262 259 257 256 255 256 255 255 255 254 254 254 255 255 256 257 260 262 264 266
333 326 321 314 303 290 282 275 270 264 253 253 258 257 261 267 266 268 275 265 263 263 264 262 261 261 259 259 259 257 255 254 255 255 254 254 254 254 256 258 263 263 261
329 325 320 315 308 300 288 278 271 266 263 262 264 264 265 267 267 272 267 261 262 265 263 261 261 262 260 259 258 258 257 254 254 253 251 252 253 254 255 257 257 257 258
323 320 316 311 307 302 295 288 279 273 268 266 265 266 267 264 263 264 264 265 269 263 257 260 262 261 260 257 256 258 257 253 250 250 251 250 252 253 254 255 256 255 254
310 308 307 305 302 298 295 290 287 283 279 275 272 270 269 268 267 266 268 269 272 271 269 264 261 261 258 259 257 255 253 248 247 247 249 250 250 252 253 254 253 253 252
299 297 295 292 290 288 287 285 283 282 280 279 278 276 275 273 271 270 269 269 268 269 268 265 261 260 259 255 252 249 247 246 246 245 248 250 250 252 254 253 251 250 251